Notices

What's New in latest Release from April 7th, 2021:

- Updated Glossary, including Speed of Maximum Gust, and Total Hourly Precipitation

- Updated national and regional climate services offices contacts and prices information

- Addition of station inventory lists for 1981-2010, 1971-2000, and 1961-1990 Normals.

If you haven't already, please take our survey and provide feedback about our website: https://eccc.sondage-survey.ca/f/LanguageSelection.aspx?s=442ca660-fcf1-47c0-95a9-59707d6fd709

Hourly Data Report for October 03, 2004

SHERBROOKE A
QUEBEC

45°26'00.000" N
71°41'00.000" W
241.40 m
7028124
71610
YSC

Download Data

Hourly Data (October 2004)
Hourly Data Report for October 3, 2004
TIME
LST
Temp Definition
°C
Dew Point Definition
°C
Rel Hum Definition
%
Precip. Amount Definition
mm

Wind Dir Definition
10's deg

Wind Spd Definition
km/h
Visibility Definition
km
Stn Press Definition
kPa
Hmdx Definition


Wind Chill Definition


Weather Definition


00:00 5.9 3.4 84   23 9 15.0 99.32      
01:00 2.9 1.8 92   16 4 15.0 99.37      
02:00 1.3 0.2 92   17 4 15.0 99.35      
03:00 0.9 -0.3 92     0 15.0 99.33      
04:00 2.4 1.4 93   11 4 15.0 99.38      
05:00 1.7 0.6 92   9 4 15.0 99.39      
06:00 0.8 -0.3 92   11 4 15.0 99.46      
07:00 3.7 2.6 93     0 24.1 99.50     Mainly Clear
08:00 5.7 3.7 87   6 4 24.1 99.50     Clear
09:00 9.1 5.1 76   19 6 24.1 99.49     Mainly Clear
10:00 10.4 4.7 68   24 6 24.1 99.46     Mainly Clear
11:00 11.8 3.2 56   12 6 24.1 99.40     Mainly Clear
12:00 12.1 3.7 56   29 6 24.1 99.34     Mainly Clear
13:00 13.6 4.3 53   20 7 24.1 99.28     Mainly Clear
14:00 14.0 5.1 55   27 13 24.1 99.23     Mainly Clear
15:00 13.8 3.3 49   18 4 24.1 99.15     Mainly Clear
16:00 13.9 4.1 52   21 6 24.1 99.10     Clear
17:00 12.3 4.4 58   17 4 15.0 99.06      
18:00 7.2 4.7 84     0 15.0 99.05      
19:00 6.0 4.2 88   10 4 15.0 99.03      
20:00 5.5 3.7 88   10 9 15.0 99.01      
21:00 5.2 3.2 87   11 13 15.0 98.96      
22:00 4.1 2.2 87   10 6 15.0 98.93      
23:00 3.0 1.5 90   10 6 15.0 98.92      

Notes on Data Quality.

Legend

  • E = Estimated
  • M = Missing
  • NA = Not Available*
  • [empty] = Indicates an unobserved value
Date modified: